#timestamp,LO_Frequency,Hit,StdDev 
1568768415.1,286047002.8,N
1568768416.0,286047002.8,N
1568768435.8,286046999.7,N
1568768455.6,286047000.5,N
1568768475.5,286046999.0,N
1568768495.3,286047001.2,N
1568768515.2,286046998.8,N
1568768535.9,286046996.5,N
1568768555.7,286047011.9,Y
1568768575.6,286047002.8,P
1568768595.4,286047002.6,N
1568768615.3,286046999.6,N
1568768635.1,286046998.2,N
1568768636.0,286046998.2,N
1568768655.8,286047002.3,N
1568768675.7,286046998.4,N
1568768695.5,286047001.1,N
1568768715.3,286047000.8,N
1568768735.2,286046998.6,N
1568768755.0,286047006.0,Y
1568768755.9,286047006.0,P
1568768775.8,286047004.7,N
1568768795.6,286047004.2,N
1568768815.4,286047001.3,N
1568768835.3,286047004.2,N
1568768855.1,286047005.7,N
1568768875.9,286047002.9,N
1568768895.7,286047006.7,Y
1568768915.5,286047004.2,P
1568768935.4,286047005.6,P
1568768955.2,286047004.4,P
1568768975.0,286047001.8,N
1568768975.9,286047001.8,N
1568768995.8,286047003.9,N
1568769015.6,286047002.3,N
1568769035.5,286047007.2,Y
1568769055.3,286046999.0,P
1568769075.1,286046998.8,N
1568769095.9,286046998.4,N
1568769115.7,286046998.9,N
1568769135.6,286046999.2,N
1568769155.4,286046997.8,N
1568769175.2,286046996.6,N
1568769195.1,286046998.3,N
1568769196.0,286046998.3,N
1568769215.8,286046998.9,N
1568769235.6,286046997.4,N
1568769255.5,286046997.2,N
1568769275.2,286046996.8,N
1568769295.0,286046998.1,N
1568769295.9,286046998.1,N
1568769315.8,286046998.7,N
1568769335.6,286046996.5,N
1568769355.5,286046997.8,N
1568769375.3,286046998.9,N
1568769395.1,286047002.2,N
1568769415.9,286046999.3,N
1568769435.7,286046999.0,N
1568769455.5,286046997.7,N
1568769475.4,286046996.8,N
1568769495.2,286046997.5,N
1568769515.1,286047000.5,N
1568769516.0,286047000.5,N
1568769535.8,286047000.5,N
1568769555.6,286047001.0,N
1568769575.5,286047002.8,N
1568769595.3,286047001.2,N
1568769615.1,286046998.7,N
1568769635.9,286046998.3,N
1568769655.7,286046998.8,N
1568769675.6,286046997.3,N
1568769695.4,286046999.4,N
1568769715.2,286046999.0,N
1568769735.1,286047001.2,N
1568769736.0,286047001.2,N
1568769755.8,286046998.1,N
1568769775.6,286046998.5,N
1568769795.5,286046999.2,N
1568769815.3,286046997.3,N
1568769835.2,286046999.0,N
1568769855.9,286047002.1,N
1568769875.7,286047001.0,N
1568769895.6,286046998.7,N
1568769915.4,286047000.5,N
1568769935.2,286046997.8,N
1568769955.1,286046995.0,Y
1568769956.0,286046995.0,P
1568769975.8,286046999.1,N
1568769995.7,286046998.2,N
1568770015.5,286046999.9,N
1568770035.3,286046999.4,N
1568770055.2,286047000.5,N
1568770075.0,286047000.7,N
1568770075.9,286047000.7,N
1568770095.8,286046998.9,N
1568770115.6,286046998.2,N
1568770135.4,286047004.2,N
1568770155.3,286047001.8,N
1568770175.1,286047000.4,N
1568770195.8,286047002.5,N
1568770215.7,286047002.9,N
1568770235.5,286047001.8,N
1568770255.4,286047002.8,N
1568770275.2,286047000.4,N
1568770295.0,286046998.4,N
1568770295.9,286046998.4,N
1568770315.8,286046998.1,N
1568770335.6,286046997.0,N
1568770355.4,286046999.6,N
1568770375.3,286046998.3,N
1568770395.1,286046997.8,N
1568770415.9,286046997.2,N
1568770435.7,286046997.6,N
1568770455.5,286046995.9,N
1568770475.4,286046990.1,Y
1568770495.2,286046992.1,P
1568770515.0,286046994.4,N
1568770516.0,286046994.4,N
1568770535.8,286046992.4,N
1568770555.6,286046996.5,N
1568770575.5,286046996.8,N
1568770595.3,286046994.9,N
1568770615.1,286046998.0,N
1568770635.9,286046997.1,N
1568770655.7,286046997.6,N
1568770675.6,286046997.6,N
1568770695.4,286046996.8,N
1568770715.2,286046998.6,N
1568770735.1,286046997.0,N
1568770736.0,286046997.0,N
1568770755.8,286047000.2,N
1568770775.6,286047000.6,N
1568770795.5,286047001.1,N
1568770815.3,286047000.4,N
1568770835.2,286047000.4,N
1568770855.0,286047001.1,N
1568770855.9,286047001.1,N
1568770875.7,286047000.8,N
1568770895.6,286047000.0,N
1568770915.4,286047002.3,N
1568770935.3,286047002.4,N
1568770955.1,286047000.8,N
1568770956.0,286047000.8,N
1568770975.8,286047000.0,N
1568770995.7,286047004.4,N
1568771015.5,286047003.8,N
1568771035.4,286047001.4,N
1568771055.2,286046999.7,N
1568771075.0,286047002.2,N
1568771075.9,286047002.2,N
1568771095.8,286047001.7,N
1568771115.6,286047002.1,N
1568771135.4,286047000.2,N
1568771155.3,286047000.5,N
1568771175.1,286046999.6,N
1568771195.9,286047000.9,N
1568771215.7,286047001.0,N
1568771235.5,286047004.4,N
1568771255.4,286046999.9,N
1568771275.2,286047002.2,N
1568771295.0,286047001.0,N
1568771295.9,286047001.0,N
1568771315.8,286047000.6,N
1568771335.6,286047003.1,N
1568771355.5,286047005.6,Y
1568771375.3,286047003.4,P
1568771395.1,286047003.4,P
1568771415.9,286047003.5,P
1568771435.7,286047001.6,N
1568771455.6,286046999.8,N
1568771475.4,286047001.0,N
1568771495.2,286047000.0,N
1568771515.1,286047002.2,N
1568771516.0,286047002.2,N
1568771535.8,286047000.0,N
1568771555.6,286047001.0,N
1568771575.5,286047002.3,N
1568771595.3,286047001.2,N
1568771615.2,286046998.1,N
1568771635.9,286046998.8,N
1568771655.7,286047001.1,N
1568771675.6,286046999.0,N
1568771695.4,286047000.3,N
1568771715.2,286047002.8,N
1568771735.1,286047000.7,N
1568771736.0,286047000.7,N
1568771755.8,286047001.8,N
1568771775.7,286047001.2,N
1568771795.5,286046998.9,N
1568771815.3,286046998.6,N
1568771835.2,286047001.0,N
1568771855.9,286047001.8,N
1568771875.7,286047002.5,N
1568771895.6,286047000.2,N
1568771915.4,286047000.0,N
1568771935.2,286047001.2,N
1568771955.1,286047000.6,N
1568771956.0,286047000.6,N
1568771975.8,286046998.5,N
1568771995.7,286046995.4,Y
